Weather in Kostromskaya

Russia / Krasnodar Krai     44°30′53″N   40°35′28″E
temp.,
°C
wind,
m/s
gust,
m/s
humid.,
%
clouds,
%
prec.,
mm/h
press.,
hPa
HPBL,
m
24 may, tue
tue2400:00+8wsw2393100 0.0 100948
03:00+8sw2287100 0.0 100937
06:00+9sw2586100 0.1 1010215
09:00+10s1191100 1.1 101177
12:00+14n3367100 0.2 10101141
15:00+10wsw2495100 7.3 1012174
18:00+12nw359096 2.9 1013503
21:00+9wnw119459 3.9 101611
25 may, wed
wed2500:00+8w119698 0.1 101713
03:00+9sw119488 0.4 101722
06:00+9sw239268 0.4 1019102
09:00+13wnw337614 0.6 1019584
12:00+17nnw454971 0.1 10192028
15:00+15nw345799 0.1 10201184
18:00+15wnw2365100 0.0 1020324
21:00+12sw1169100 0.1 102211
26 may, thu
thu2600:00+10ssw227665 0.0 102221
03:00+10sw117694 0.0 102217
06:00+11ssw127760 0.0 102255
09:00+16ene11565 0.0 10221044
12:00+18ene334826 0.0 10201874
15:00+19nne335032 0.0 10191612
18:00+17nne226525 0.0 1019532
21:00+12ssw118093 0.0 102110
27 may, fri
fri2700:00+11ssw118365 0.0 102012
03:00+9ssw118960 0.0 102010
06:00+11s228330 0.0 102158
09:00+17nw244952 0.0 1020767
12:00+20nw35353 0.0 10191089
15:00+20nnw4547100 0.0 10181466
18:00+18n336953 0.0 1018514
21:00+13sse11871 0.0 102011
28 may, sat
sat2800:00+11sse22900 0.0 101821
03:00+11sse22875 0.0 101822
06:00+12sse23790 0.0 101756
09:00+19ese23600 0.0 1015525
12:00+23ne32550 0.0 10141267
15:00+23ne435618 0.0 10131267
18:00+22ne34712 0.1 1013336
21:00+16ese11860 0.1 101411